EW6761 Weather Reports


Display with metric or nautical units.
time (UTC)temp
F
wind
direction
speed
MPH
gust
MPH
rain 1hr
in
rain 24hr
in
rain mn
in
humidity
%
barometer
mb
20260507043059 49 90 0.0 0.0 0.00 0.00 0.00 85 1017.5
20260507043002 49 90 0.0 0.0 0.00 0.00 0.00 85 1017.5
20260507041545 49 90 0.0 0.0 0.00 0.00 0.00 84 1017.5
20260507040002 50 90 0.0 0.0 0.00 0.00 0.00 83 1017.4
20260507034541 50 90 0.0 1.0 0.00 0.00 0.00 82 1017.4
20260507033027 50 90 0.0 0.0 0.00 0.00 0.00 81 1017.3
20260507031602 51 90 0.0 1.0 0.00 0.00 0.00 81 1017.1
20260507024610 52 90 0.0 0.0 0.00 0.00 0.00 79 1016.6
20260507024507 52 90 0.0 0.0 0.00 0.00 0.00 79 1016.6
20260507023044 52 90 0.0 0.0 0.00 0.00 0.00 80 1016.5
20260507021526 53 90 0.0 0.0 0.00 0.00 0.00 77 1016.4
20260507020107 54 90 0.0 1.0 0.00 0.00 0.00 76 1016.3
20260507014541 55 90 0.0 0.0 0.00 0.00 0.00 72 1016.0
20260507013018 57 90 0.0 1.0 0.00 0.00 0.00 69 1015.7
20260507011557 58 90 0.0 1.0 0.00 0.00 0.00 66 1015.6
20260507010043 60 105 0.0 3.0 0.00 0.00 0.00 63 1015.4
20260507004549 60 137 0.0 3.0 0.00 0.00 0.00 60 1015.3
20260507003029 62 87 0.0 5.0 0.00 0.00 0.00 58 1015.5
20260507001514 62 126 0.0 5.0 0.00 0.00 0.00 57 1015.5
20260507000051 62 62 2.0 5.0 0.00 0.00 0.00 55 1015.4
20260506234515 62 20 1.0 6.0 0.00 0.00 0.00 55 1015.2
20260506233055 62 170 2.0 7.0 0.00 0.00 0.00 55 1015.2
20260506231535 62 183 2.0 7.0 0.00 0.00 0.00 53 1015.4
20260506230110 62 23 1.0 7.0 0.00 0.00 0.00 54 1015.2
20260506224534 62 359 2.0 6.0 0.00 0.00 0.00 53 1015.2
20260506223017 63 138 1.0 4.0 0.00 0.00 0.00 52 1015.0
20260506221552 64 351 2.0 6.0 0.00 0.00 0.00 52 1014.7
20260506220013 63 42 1.0 6.0 0.00 0.00 0.00 56 1014.5
20260506214548 62 7 1.0 6.0 0.00 0.00 0.00 58 1014.5
20260506213038 63 71 1.0 8.0 0.00 0.00 0.00 58 1013.8
20260506211519 64 94 2.0 8.0 0.00 0.00 0.00 57 1013.5
20260506210054 63 66 2.0 7.0 0.00 0.00 0.00 58 1013.8
20260506204511 63 159 1.0 7.0 0.00 0.00 0.00 58 1013.5
20260506203052 63 149 0.0 5.0 0.00 0.00 0.00 58 1014.1
20260506201540 64 319 1.0 7.0 0.00 0.00 0.00 56 1014.2
20260506200001 62 206 0.0 4.0 0.00 0.00 0.00 62 1014.5
20260506194534 62 123 1.0 5.0 0.00 0.00 0.00 58 1015.2
20260506193021 61 205 1.0 7.0 0.00 0.00 0.00 58 1015.6
20260506191556 62 96 2.0 6.0 0.00 0.00 0.00 57 1015.6
20260506190041 61 123 0.0 7.0 0.00 0.00 0.00 60 1015.7
20260506184553 60 132 0.0 6.0 0.00 0.00 0.00 61 1016.3
20260506183036 59 42 1.0 9.0 0.00 0.00 0.00 60 1016.4
20260506181524 59 285 2.0 7.0 0.00 0.00 0.00 60 1016.5
20260506174521 58 57 2.0 5.0 0.00 0.00 0.00 63 1016.4
20260506173129 56 27 2.0 8.0 0.00 0.00 0.00 63 1016.4
20260506171542 56 139 1.0 7.0 0.00 0.00 0.00 63 1016.6
20260506170119 55 74 0.0 6.0 0.00 0.00 0.00 65 1016.7
20260506164548 55 87 1.0 5.0 0.00 0.00 0.00 64 1016.9
20260506163027 54 152 1.0 6.0 0.00 0.00 0.00 65 1017.5
20260506161503 54 122 2.0 14.0 0.00 0.00 0.00 64 1017.0
20260506160021 54 157 3.0 7.0 0.00 0.00 0.00 64 1016.9
20260506154552 54 26 1.0 8.0 0.00 0.00 0.00 66 1016.6
20260506153031 54 138 2.0 9.0 0.00 0.00 0.00 65 1016.2
20260506151511 53 136 4.0 11.0 0.00 0.00 0.00 67 1015.6
20260506150050 53 206 4.0 11.0 0.00 0.00 0.00 66 1016.3
20260506144512 53 101 3.0 9.0 0.00 0.00 0.00 66 1016.0
20260506143050 53 116 1.0 13.0 0.00 0.00 0.00 66 1015.3
20260506141532 52 111 3.0 9.0 0.00 0.00 0.00 66 1015.3
20260506140113 52 86 4.0 9.0 0.00 0.00 0.00 65 1015.5
20260506134539 52 76 1.0 9.0 0.00 0.00 0.00 65 1015.3
20260506133020 52 85 2.0 9.0 0.00 0.00 0.00 67 1014.9
20260506131603 52 17 1.0 5.0 0.00 0.00 0.00 67 1014.9
20260506131505 52 195 1.0 5.0 0.00 0.00 0.00 67 1014.9
20260506130058 52 142 1.0 4.0 0.00 0.00 0.00 66 1015.2
20260506124601 52 360 0.0 4.0 0.00 0.00 0.00 66 1015.0
20260506123042 52 178 0.0 5.0 0.00 0.00 0.00 66 1015.2
20260506121518 52 113 1.0 4.0 0.00 0.00 0.00 68 1014.3
20260506120106 52 112 2.0 6.0 0.00 0.00 0.00 69 1013.7
20260506114518 52 87 1.0 8.0 0.00 0.00 0.00 70 1013.8
20260506113055 52 162 0.0 3.0 0.00 0.00 0.00 72 1013.2
20260506111530 52 114 1.0 3.0 0.00 0.00 0.00 74 1013.4
20260506110106 52 111 0.0 4.0 0.00 0.00 0.00 75 1013.0
20260506104531 51 351 1.0 5.0 0.00 0.00 0.00 76 1012.6
20260506103009 51 152 0.0 8.0 0.00 0.00 0.00 77 1012.1
20260506101559 51 39 0.0 5.0 0.00 0.00 0.00 77 1011.6
20260506100014 51 121 1.0 8.0 0.00 0.00 0.00 77 1011.3
20260506094554 51 149 0.0 5.0 0.00 0.00 0.00 78 1011.3
20260506093044 51 109 3.0 7.0 0.00 0.00 0.00 78 1011.2
20260506091515 51 151 0.0 5.0 0.00 0.00 0.00 79 1010.9
20260506090051 51 74 0.0 8.0 0.00 0.00 0.00 80 1010.6
20260506084512 51 94 1.0 6.0 0.00 0.00 0.00 80 1010.3
20260506083051 51 113 1.0 3.0 0.00 0.00 0.00 81 1010.5
20260506081535 51 144 1.0 6.0 0.00 0.00 0.00 81 1010.5
20260506080106 51 41 1.0 5.0 0.00 0.00 0.00 81 1010.2
20260506073009 52 357 0.0 4.0 0.00 0.00 0.00 81 1010.3
20260506071544 52 355 0.0 3.0 0.00 0.00 0.00 81 1009.9
20260506061504 52 98 0.0 6.0 0.00 0.00 0.00 80 1010.0
20260506050109 52 347 1.0 4.0 0.00 0.00 0.00 81 1010.0
20260506044548 52 80 1.0 6.0 0.00 0.00 0.00 81 1009.9
20260506043101 52 49 1.0 8.0 0.00 0.00 0.00 80 1009.8